Regional Weather Roundup
Issued by NWS

Home | Current Version | Previous Version | Graphics & Text | Print | Product List | Glossary On
Versions: 1 2 3 4 5 6 7 8 9 10 11 12 13 14 15 16 17 18 19 20 21 22 23 24 25 26 27 28 29 30 31 32 33 34 35 36 37 38 39 40 41 42 43 44 45 46 47 48 49 50
000
ASUS43 KDTX 271401
RWRMI
MICHIGAN HOURLY REGIONAL WEATHER ROUNDUP
NATIONAL WEATHER SERVICE DETROIT/PONTIAC MI
1000 AM EDT WED AUG 27 2014

NOTE: "FAIR" INDICATES FEW OR NO CLOUDS BELOW 12,000 FEET WITH NO
SIGNIFICANT WEATHER AND/OR OBSTRUCTION TO VISIBILITY.

MIZ047>049-052>055-059>063-066>070-074>076-081>083-271500-
SOUTHEAST LOWER MICHIGAN

CITY           SKY/WX    TMP DP  RH WIND       PRES   REMARKS
ADRIAN         CLOUDY    69  65  86 N8        30.14R
ALMA           CLOUDY    61  58  90 N3        30.16F
ANN ARBOR      CLOUDY    68  61  78 NE8       30.13R
BAD AXE        PTSUNNY   63  58  85 W5        30.16S
CARO           PTSUNNY   63  58  82 CALM      30.16S
DETROIT CITY   PTSUNNY   71  59  65 N7        30.12F
DETROIT        CLOUDY    70  62  76 N7        30.13S
FLINT          CLOUDY    68  56  65 NE7       30.16R
GROSSE ILE     MOSUNNY   72  63  73 NE9       30.11S
HILLSDALE      CLOUDY    66  66 100 CALM      30.14S FOG
HOWELL         CLOUDY    66  62  89 E7        30.15S

CITY           SKY/WX    TMP DP  RH WIND       PRES   REMARKS
JACKSON        CLOUDY    66  64  93 CALM      30.14R FOG
LAMBERTVILLE   CLOUDY    72  64  78 NE5       30.12S
LANSING        CLOUDY    64  61  90 NE5       30.15F
LAPEER         CLOUDY    64  57  77 N3        30.16S
MASON          CLOUDY    64  62  93 NE6       30.15S
MONROE         PTSUNNY   72  63  73 E6        30.10S
MT. CLEMENS    PTSUNNY   68  57  67 N8        30.12S
PONTIAC        PTSUNNY   67  56  67 NE6       30.14R
PORT HOPE        N/A     63  55  75 NW6       30.13S
PORT HURON     MOSUNNY   68  59  73 N7        30.13F
TRI CITIES     CLOUDY    64  55  72 NE6       30.16F
TROY           CLOUDY    68  57  66 NE6       30.15R
SAGINAW HB     LGT RAIN  64  63  94 CALM      30.15F
$$
MIZ043>046-050>051-056>058-064>065-071>073-077>080-271500-
SOUTHWEST LOWER MICHIGAN

CITY           SKY/WX    TMP DP  RH WIND       PRES   REMARKS
BATTLE CREEK   CLOUDY    67  61  81 N7        30.15S
BENTON HARBOR  MOSUNNY   67  62  84 NE3       30.15S
BIG RAPIDS     PTSUNNY   62  61  97 SE7       30.16S
COLDWATER      MOSUNNY   67  64  88 N6        30.14F
FREMONT        FAIR      64  58  79 E5        30.16S
HOLLAND        MOSUNNY   68  60  75 E5        30.17S
GRAND RAPIDS   PTSUNNY   65  63  93 NE5       30.16F
IONIA          FAIR      61  60  96 NE3       30.15F
KALAMAZOO      CLOUDY    68  60  75 N6        30.15F
LUDINGTON      PTSUNNY   67  60  78 NE5         N/A
MARSHALL       CLOUDY    64  61  91 NE3       30.14S
MOUNT PLEASANT CLOUDY    60  56  87 CALM      30.15F
MUSKEGON       MOSUNNY   67  58  72 E7        30.16R
SOUTH HAVEN    MOSUNNY   68  62  80 E6        30.15F
$$
MIZ016>042-271500-
NORTHERN LOWER MICHIGAN

CITY           SKY/WX    TMP DP  RH WIND       PRES   REMARKS
ALPENA         LGT RAIN  58  53  84 W6        30.14F
BEAVER ISLAND  PTSUNNY   61  52  71 NW6       30.17R
BELLAIRE       CLOUDY    61  56  83 SE6       30.16S
CHARLEVOIX     CLOUDY    63  55  75 CALM      30.19R
FRANKFORT      CLOUDY    64  52  66 CALM      30.18S
GAYLORD        LGT RAIN  56  53  90 W6        30.18R
GRAYLING       CLOUDY    59  51  74 W3        30.18R
HARBOR SPRINGS CLOUDY    61  56  85 CALM      30.16R
HOUGHTON LAKE  CLOUDY    59  55  87 CALM      30.16S
MANISTEE       CLOUDY    61  54  77 CALM      30.19R
OSCODA         CLOUDY    61  52  72 NW6       30.14S
PELLSTON       CLOUDY    59  57  93 NW5       30.16R
ROGERS CITY    CLOUDY    59  55  88 W6        30.15S
TRAVERSE CITY  CLOUDY    62  55  77 CALM      30.16R
$$
MIZ007>008-015-271500-
EASTERN UPPER MICHIGAN

CITY           SKY/WX    TMP DP  RH WIND       PRES   REMARKS
KINROSS        CLOUDY    54  54 100 W6        30.14R
MACKINAC ISLAN CLOUDY    56  55  95 W5        30.15S
NEWBERRY       MOSUNNY   57  52  85 W10G16    30.16S
S. S. MARIE    CLOUDY    57  54  89 W8        30.12R
$$
MIZ004>006-011>014-085-271500-
CENTRAL UPPER MICHIGAN

CITY           SKY/WX    TMP DP  RH WIND       PRES   REMARKS
MANISTIQUE     MOSUNNY   60  53  76 NW6       30.17S
ESCANABA       MOSUNNY   57  52  82 N3        30.19R
MENOMINEE      MOSUNNY   61  54  77 CALM      30.18R
SAWYER-GWINN   MOSUNNY   59  50  72 N7        30.18R
$$
MIZ001>003-009>011-084-271500-
WESTERN UPPER MICHIGAN

CITY           SKY/WX    TMP DP  RH WIND       PRES   REMARKS
IRON MOUNTAIN  PTSUNNY   59  51  75 NW3       30.19R
HOUGHTON       CLOUDY    59  50  72 VRB6      30.18R
COPPER HARBOR    N/A     57  50  77 N9        30.17R
$$

ABBREVIATIONS USED IN REMARKS
   TC - TEMPERATURE IN CELSIUS
  WCI - WIND CHILL INDEX
   HX - HEAT INDEX
  VSB - VISIBILITY




USA.gov is the U.S. government's official web portal to all federal, state and local government web resources and services.